Location: ??????
(55.8274°N, 37.9338°E)
Time: 06:10:13
(UTC+00:00)

FENGYUN 3A - Visible Passes

Search period start: 16 July 2024 00:00
Search period end: 26 July 2024 00:00
Orbit: 822 x 834 km, 98.6° (Epoch: 15 July)

Date Brightness Start Highest point End Pass type
(mag) Time Alt. Az. Time Alt. Az. Time Alt. Az.
16 Jul 5.5 22:46:29 10° NE 22:50:50 24° E 22:55:08 10° SE visible
17 Jul 5.8 22:28:34 10° NE 22:32:12 18° E 22:35:48 10° SE visible
18 Jul 3.8 00:07:50 10° NNE 00:13:18 83° ESE 00:18:44 10° SSW visible
18 Jul 6.0 22:11:00 10° NE 22:13:30 13° E 22:16:00 10° ESE visible
18 Jul 4.1 23:49:28 10° NNE 23:54:53 63° ESE 00:00:16 10° S visible
19 Jul 4.5 23:31:10 10° NNE 23:36:25 47° E 23:41:39 10° S visible
20 Jul 4.9 23:12:55 10° NNE 23:17:55 36° E 23:22:52 10° SSE visible
21 Jul 5.3 22:54:45 10° NNE 22:59:21 27° E 23:03:54 10° SSE visible
22 Jul 5.7 22:36:44 10° NE 22:40:44 20° E 22:44:43 10° SE visible
23 Jul 3.7 00:16:15 10° NNE 00:21:43 87° WNW 00:27:10 10° SSW visible
23 Jul 5.9 22:18:56 10° NE 22:22:04 15° E 22:25:10 10° ESE visible
23 Jul 3.9 23:57:51 10° NNE 00:03:19 72° ESE 00:08:44 10° S visible
24 Jul 6.1 22:01:51 10° ENE 22:03:20 11° E 22:04:50 10° E visible
24 Jul 4.3 23:39:31 10° NNE 23:44:53 54° E 23:50:12 10° S visible
25 Jul 4.7 23:21:14 10° NNE 23:26:23 41° E 23:31:30 10° SSE visible
